Regional Weather Roundup
Issued by NWS Wakefield, VA

Home | Current Version | Previous Version | Text Only | Print | Product List | Glossary On
Versions: 1 2 3 4 5 6 7 8 9 10 11 12 13 14 15 16 17 18 19 20 21 22 23 24 25 26 27 28 29
000
ASUS41 KAKQ 251910
RWRAKQ

REGIONAL WEATHER ROUNDUP
NATIONAL WEATHER SERVICE WAKEFIELD VA
300 PM EDT SAT OCT 25 2014

Note: "fair" indicates few or no clouds below 12,000 feet with no
significant weather and/or obstructions to visibility. * = Denotes
station may not report precipitation (e.g., rain,snow,etc.),
thunder or fog.

VAZ042-051-052>054-056-252000-
NORTHERN VIRGINIA

CITY           SKY/WX    TMP DP  RH WIND       PRES   REMARKS
WASH NATIONAL  MOSUNNY   74  42  31 W10G22    29.83F
DULLES         MOSUNNY   71  41  33 SW10      29.82F
FORT BELVOIR   SUNNY     72  39  29 W9        29.83F
QUANTICO       SUNNY     72  30  21 SW9G20    29.84F
FREDERICKSBRG* SUNNY     73  35  25 SW13      29.83F
STAFFORD*      SUNNY     70  31  24 SW8       29.88F
WARRENTON      SUNNY     74  49  40 SW7       29.82F
CULPEPER*      SUNNY     73  39  29 SW9       29.83F
MANASSAS*      SUNNY     72  37  28 S6        29.83F
LEESBURG*      MOSUNNY   72  45  37 W12G21    29.82F
WINCHESTER     SUNNY     72  32  23 W14       29.81F
FRONT ROYAL*   CLEAR     72  43  35 S6        29.81F
LURAY*         CLEAR     72  45  37 S8        29.83F
$$

VAZ048-049-060>072-079>083-252000-
CENTRAL AND SOUTH CENTRAL VIRGINIA...AND NORTH CENTRAL NORTH CAROLINA

CITY           SKY/WX    TMP DP  RH WIND       PRES   REMARKS
RICHMOND       SUNNY     71  36  27 SW9       29.88F
CHESTERFIELD*    N/A    N/A N/A N/A MISG        N/A
PETERSBURG*    SUNNY     70  34  26 SW12      29.89F
HANOVER        SUNNY     70  37  29 SW12      29.88F
TAPPAHANNOCK*  SUNNY     73  34  24 S5        29.87F
CHARLOTTSVILLE MOSUNNY   70  40  33 SW8       29.85F
ORANGE*        SUNNY     72  36  26 S8        29.86F
LOUISA*        SUNNY     72  39  30 SW7       29.85F
FARMVILLE*     SUNNY     72  37  28 SW10      29.87F
CREWE*         CLEAR     69  37  30 S7        29.89F
FORT PICKETT*  CLEAR     69  40  35 SW8       29.90F
LUNENBURG*     CLEAR     68  43  39 SW7       29.91F
SOUTH HILL*    SUNNY     70  41  35 SW5       29.96F
LAWRENCEVILLE* CLEAR     68  41  37 W3        29.90F
ROANOKE RAPIDS CLEAR     68  43  40 NW5       29.90F
RALEIGH        SUNNY     69  43  38 W6        29.94F
$$

VAZ088>098-252000-
SOUTHEAST VIRGINIA

CITY           SKY/WX    TMP DP  RH WIND       PRES   REMARKS
NORFOLK        SUNNY     68  37  32 CALM      29.87F
VIRGINIA BEACH SUNNY     70  39  32 W8        29.87F
NORFOLK NAVAL  SUNNY     70  35  27 NW5       29.89F
WEST POINT*    SUNNY     73  37  27 SW7       29.88F
NEWPORT NEWS   SUNNY     72  39  30 W8        29.87F
LANGLEY AFB    SUNNY     68  44  41 S10       29.87F
FORT EUSTIS    SUNNY     68  38  33 S5        29.86F
WILLIAMSBURG*  SUNNY     73  39  29 W7        29.89F
HR EXEC AP*    CLEAR     70  41  35 SW3       29.90F
FRANKLIN*      SUNNY     70  36  28 SW7       29.88F
WAKEFIELD      SUNNY     70  41  34 VRB6      29.89F
$$

VAZ020-022-025-037-045-252000-
WEST CENTRAL AND SOUTHWEST VIRGINIA

CITY           SKY/WX    TMP DP  RH WIND       PRES   REMARKS
STAUNTON*      SUNNY     71  38  29 SW9       29.87F
HOT SPRINGS VA SUNNY     59  37  42 W16G25    29.93F
LYNCHBURG      SUNNY     69  42  37 W8        29.92F
DANVILLE       SUNNY     70  40  33 W6        29.93F
SOUTH BOSTON*  NOT AVBL
MARTINSVILLE   SUNNY     74  40  28 CALM      29.95F
ROANOKE        MOSUNNY   72  38  29 NW17G23   29.93F
BLACKSBURG     SUNNY     68  46  45 W10G17    29.97F
DUBLIN*        SUNNY     69  42  36 W12       29.98F
MARION*        SUNNY     64  45  50 SW10      30.02F
HILLSVILLE*    SUNNY     64  41  42 W14       29.99F
RICHLANDS*     PTCLDY    65  47  51 SW8       30.03F
WISE*          CLOUDY    64  43  45 NW7       30.04F
ABINGDON*      SUNNY     65  48  54 W7        30.02F
$$

MDZ021>025-VAZ099-100-252000-
SOUTHERN MARYLAND AND THE DELMARVA PENINSULA

CITY           SKY/WX    TMP DP  RH WIND       PRES   REMARKS
PATUXENT RIVER MOSUNNY   70  41  34 W14       29.83F
BAY BRIDGE APT   N/A     68  45  42 W8        29.81F
LEONARDTOWN    SUNNY     68  37  32 W12       29.84F
DOVER          SUNNY     69  45  41 W18G24    29.77F
GEORGETOWN     SUNNY     69  43  38 W9        29.81F
EASTON         SUNNY     70  46  43 W9        29.85
CAMBRIDGE      SUNNY     72  43  35 W7        29.82F
SALISBURY      SUNNY     71  45  39 SW12      29.82F
OCEAN CITY     SUNNY     68  46  45 SW8       29.81F
WALLOPS ISLAND SUNNY     69  48  47 W8        29.84F
ACCOMACK*      SUNNY     68  39  34 NW8       29.85F
$$

NCZ012>017-030>032-252000-
EASTERN NORTH CAROLINA

CITY           SKY/WX    TMP DP  RH WIND       PRES   REMARKS
ELIZABETH CITY SUNNY     73  42  32 NE5       29.88F
AHOSKIE*       SUNNY     68  43  39 CALM      29.90F
EDENTON*       SUNNY     70  43  38 W6        29.90F
CURRITUCK*     SUNNY     69  42  37 CALM      29.88F
KILL DEVIL HLS SUNNY     67  49  52 CALM      29.89F
MANTEO         SUNNY     65  45  48 CALM      29.90F
CAPE HATTERAS  SUNNY     67  42  40 W3        29.91F
TARBORO*       CLEAR     72  45  38 W6        29.92F
GOLDSBORO      SUNNY     72  48  42 VRB6      29.90F
WASHINGTON     SUNNY     70  43  37 CALM      29.91F
GREENVILLE     SUNNY     70  43  37 CALM      29.93F
NEW BERN       SUNNY     75  44  33 VRB3      29.92F
WILMINGTON     SUNNY     75  43  31 VRB5      29.92F
$$

VAZ048-252000-
ELSEWHERE

CITY           SKY/WX    TMP DP  RH WIND       PRES   REMARKS
HARRISBURG PA  MOSUNNY   68  44  42 W8        29.75F
BALTIMORE      MOSUNNY   70  42  36 W13G23    29.79F
ANNAPOLIS      SUNNY     70  42  36 W9        29.80F
ANDREWS AFB    SUNNY     70  44  39 SW13      29.82F
WILMINGTON DE  SUNNY     69  45  41 SW8       29.78F
PHILADELPHIA   MOSUNNY   70  44  39 W16       29.76F
WILDWOOD NJ*   SUNNY     66  43  42 SW9       29.80F
ATLANTIC CITY  SUNNY     69  44  40 W16       29.76F
HENDERSON NC   SUNNY     68  38  33 W6        29.93F
GREENSBORO     SUNNY     71  34  25 W5        29.94F
ROCKY MOUNT    SUNNY     70  44  39 NW7       29.92F
FAYETTEVILLE   SUNNY     73  39  29 NW8       29.93F
CHARLOTTE      SUNNY     72  33  24 VRB3      29.98F
$$

VAZ100-252000-
MARINE

STATION/POSITION TIME  TEMP    WIND        PRES    WAVE   SWELL
                       AIR SEA DIR/SP/G            HT/PER HT/PER
                 (UTC) (F)     (DEG/KT/KT) (MB)    (FT/S) (FT/S)
44066 TX TWR #4  1900   60 65  250/ 12/ 16 1007.3F   3/ 5   2/ 9
CAPE MAY NJ      1900   63 63  220/  5/  6 1008.5F
LEWES DE         1900   68 60  270/  8/ 12 1008.8F
15NM E FENWICK I 1900   63 65  210/ 10/ 12 1009.3F   2/10   2/10
OCEAN-CITY-INLET 1900   67 63  250/  8/ 10 1009.3F
WACHAPREAGUE VA  1900   67 60  270/  5/  9 1010.8F
THOMAS POINT MD  1900   67 62  280/ 15/ 17 1010.2F
GOOSES REEF MD   1900   67     270/ 12/ 14 1010.7F
COVE POINT MD    1900   67     290/  9/ 12 1010.1F
SOLOMONS ISLAND  1900      64                N/A
BISHOPS HEAD MD  1900   63 60  210/  9/ 10 1010.1S
PINEY POINT MD   1900          320/  2/  3   N/A
POTOMAC MD       1900   65      CALM  /  2 1010.1F
CAMBRIDGE MD     1900   67 60  240/  7/ 11 1009.8F
LEWISETTA VA     1900   63 60   70/  2/  3 1010.1F
RAPPAHANNOCK LGT 1900          180/  4/  5 1011.7F
STINGRAY PT      1900   64     170/  8/ 10 1012.0F
YORK RVR RNG VA  1900   64     170/  5/  5 1010.9F
YORKTOWN VA      1900   69 64  130/  1/  2 1010.9F
JAMESTOWN VA     1900   65     330/  4/  4   N/A
DOMINION TERM VA 1900   64     210/  2/  2 1011.9F
KIPTOPEKE VA     1900      66  240/  7/  9   N/A
CHES BAY BRIDGE  1900   63 65  200/  2/  3 1011.3F
CHESAPEAKE LGHT  1800   65     260/  3/  4 1013.1F
WILLOUBY STN VA  1900   65     230/  5/  5 1010.6S
S CRANEY ISL VA  1900           20/  2/  3 1011.5F
CAPE HENRY BUOY  1900      67                N/A     2/11
1ST LANDING BUOY 1900   63     250/  4/  6 1011.7F
CAPE CHARLES BUO 1900      67                N/A     2/10   2/10
64NM E OF VA BCH 1900   63 67  320/  8/ 12 1011.4F   3/ 9   3/ 9
DUCK PIER NC     1900   65 66   60/  1/  2 1011.5F
44100 DUCK FRF   1900      67                N/A     3/10   2/11
44056 DUCK FRF   1900                        N/A     3/11   2/11
OREGON INLET NC  1900   65 64   20/  8/ 11 1012.3F
HATTERAS NC      1900   68 66  260/  3/  5 1013.1F
DIAMOND SHLS NC  1900   67     280/  8/ 10 1013.1F   3/ 9   3/ 9
CAPE LOOKOUT NC  1800   68     300/  3/  4 1013.9F
$$



USA.gov is the U.S. government's official web portal to all federal, state and local government web resources and services.